Location: �clusier
(49.9361°N, 2.7869°E)
Time: 04:58:03
(UTC+00:00)

Cosmos 2016 Rocket - Pass Details

Date: 31 October 2021
Orbit: 947 x 1000 km, 83.0° (Epoch: 05 December)

Event Time Altitude Azimuth Distance (km) Brightness Sun altitude
Rises 05:01:01 0° 354° (N) 3,630 6.9 -15.8°
Reaches altitude 10° 05:03:42 10° 2° (N) 2,682 6.3 -15.4°
Maximum altitude 05:09:24 39° 71° (ENE) 1,396 5.4 -14.5°
Drops below altitude 10° 05:15:06 10° 139° (SE) 2,685 7.0 -13.6°
Sets 05:17:47 0° 147° (SSE) 3,634 7.6 -13.1°
